Aérodrome :
LOGIN :

S'inscrire | Disclaimer

   EN    FR    IT 

 










Légende :    VFR   VFR Marginal   IFR   IFR Intensif   IFR Très Intensif
Visi : 
Plafond : 
>= 8 km
>= 3000ft
5 à 8 km
1000 à 3000 ft
1500m à 5 km
500 à 1000 ft
800 à 1500m
200 à 500 ft
< 800m
< 200 ft
Symboles :   Orages  Brouillard  Fortes neiges  Fortes précipitations  Vent > 20 kt
SIGMETs :   Divers  Orages  Givrage  Turbulence  Onde Orograph.  Cendres Volcan.







- Altitude de l'aérodrome : 120 ft
- Code IATA : MME
- Voir les cartes d'approche


EGNV - Durham Tees valley

DERNIER METAR :
  • 240650Z 24010KT 9999 FEW030 10/04 Q1009

METARs EXPIRÉS :
  • 240620Z 25014KT 9999 FEW030 09/04 Q1009
  • 240550Z 24012KT 9999 FEW020 SCT045 09/04 Q1009
  • 240520Z 24007KT 9999 FEW028 SCT038 10/04 Q1009
  • 240450Z 25005KT 200V310 9999 FEW026 SCT040 10/04 Q1009

TAF TAF EGNV
Valide du 24 à 05h jusqu'au 24 à 12h UTC


240522Z 2405/2412 24009KT 9999 FEW030
ATIS : +44 9012 018 111
Pas de NOTAMs connus pour ce terrain.



MET'MAP, la Météo Aéronautique d'un coup d'oeil ! - Copyright ORBIFLY Décembre 2007 - Disclaimer

ORBIFLY MET'MAP TEAM :

Programmation & Développement : Alexandra Zaïnal
Conception & Développement : Baudouin d'Aumeries
Co-Programmation & Développement : Marc-Olivier Méhu
Soutien technique & logistique : Manuel Goepfert

Contact : metmap@orbifly.com




SOURCES & CREDITS :

   NOAA